Location: Newark
(34.3481°N, 134.0494°E)
Time: 11:33:23
(UTC+00:00)

Vanguard 3 - Pass Details

Date: 23 January 2020
Orbit: 508 x 3263 km, 33.3° (Epoch: 19 February)

Event Time Altitude Azimuth Distance (km) Brightness Sun altitude
Rises 12:19:03 0° 274° (W) 7,121 12.6 -48.3°
Reaches altitude 10° 12:24:11 10° 274° (W) 5,910 12.0 -49.4°
Enters shadow 12:37:49 59° 267° (W) 2,670 9.6 -52.1°
